Location: Düngen
(52.0952°N, 10.0219°E)
Time: 15:07:06
(UTC+00:00)

S3M - Pass Details

Date: 11 March 2026
Orbit: 948 x 1003 km, 83.0° (Epoch: 14 April)

Event Time Altitude Azimuth Distance (km) Brightness Sun altitude
Rises 19:41:23 0° 348° (NNW) 3,744 7.6 -22.4°
Reaches altitude 10° 19:43:57 10° 345° (NNW) 2,790 6.9 -22.7°
Maximum altitude 19:50:16 64° 266° (W) 1,106 4.4 -23.6°
Enters shadow 19:56:08 12° 187° (S) 2,614 6.0 -24.4°
